Location: Eindhoven
(51.4416°N, 5.4697°E)
Time: 18:13:01
(UTC+01:00)

deb Explorer IX - Pass Details

Date: 17 November 2019
Orbit: 546 x 1104 km, 38.8° (Epoch: 11 December)

Event Time Altitude Azimuth Distance (km) Brightness Sun altitude
Rises 02:10:44 0° 210° (SSW) 3,584 - -51.1°
Reaches altitude 10° 02:15:03 10° 184° (S) 2,503 - -50.7°
Maximum altitude 02:17:31 13° 159° (SSE) 2,226 - -50.4°
Drops below altitude 10° 02:19:52 10° 134° (SE) 2,336 - -50.1°
Sets 02:23:35 0° 106° (ESE) 3,128 - -49.7°
